Torna al catalogo

SL-14 DEB

AttivoPO
NORAD 47092·DEBRIS·🇷🇺 Russia

Lanciato Aug 15, 1991 da Plesetsk Cosmodrome

Loading…

Prossimi Passaggi (prossime 24 ore)

TLE

AggiornatoSource: Space-Track

Epoca: Sep 13, 2026, 18:05 UTC

1 47092U 91056DS  26256.75369928  .00001020  00000-0  17537-2 0  9991
2 47092  82.5688  14.5844 0084481 324.3275  35.2234 13.42171115286212

Traccia SL-14 DEB in tempo reale con AllMySat

Download on the App Store